Terminal Aerodrome Forecast
Issued by NWS Bismarck, ND

Home | Current Version | Previous Version | Graphics & Text | Print | Product List | Glossary On
Versions: 1 2 3 4 5 6 7 8 9 10 11 12 13 14 15
000
FTUS43 KBIS 131600 AAA
TAFBIS
TAF AMD
KBIS 131604Z 1316/1412 22013KT P6SM SKC
     FM131800 27012G18KT P6SM SCT060
     FM132000 30012G19KT P6SM BKN060
     FM140100 32009KT P6SM SCT050=

USA.gov is the U.S. government's official web portal to all federal, state and local government web resources and services.